ZS5AM Weather Reports


Display with metric or nautical units.
time (UTC)temp
F
wind
direction
speed
MPH
gust
MPH
rain 1hr
in
rain 24hr
in
rain mn
in
humidity
%
barometer
mb
20210921074526 60 81 0.0 1.0 0.00 0.10 0.00 80 1025.9
20210921073024 60 355 0.0 0.0 0.00 0.10 0.00 81 1026.0
20210921071527 60 265 0.0 5.0 0.00 0.10 0.00 79 1025.8
20210921070104 60 161 0.0 2.0 0.00 0.10 0.00 80 1025.8
20210921064543 59 241 0.0 3.0 0.00 0.10 0.00 82 1025.7
20210921063059 58 326 0.0 2.0 0.00 0.10 0.00 84 1025.6
20210921061541 57 255 0.0 1.0 0.00 0.10 0.00 84 1025.4
20210921060021 57 218 0.0 0.0 0.00 0.10 0.00 84 1025.5
20210921054511 57 15 0.0 0.0 0.00 0.11 0.00 85 1025.2
20210921053019 57 18 0.0 0.0 0.00 0.11 0.00 85 1024.8
20210921051534 57 61 0.0 0.0 0.00 0.11 0.00 85 1024.6
20210921050016 56 63 0.0 0.0 0.00 0.11 0.00 85 1024.4
20210921044647 56 63 0.0 0.0 0.00 0.13 0.00 85 1024.1
20210921043103 57 61 0.0 1.0 0.00 0.13 0.00 85 1023.8
20210921041621 57 153 0.0 0.0 0.00 0.13 0.00 85 1023.4
20210921040111 57 153 0.0 0.0 0.00 0.13 0.00 84 1023.1
20210921034638 57 153 0.0 0.0 0.00 0.13 0.00 84 1022.6
20210921033121 57 138 0.0 0.0 0.00 0.13 0.00 84 1022.3
20210921031654 57 126 0.0 0.0 0.00 0.13 0.00 85 1022.0
20210921030215 57 127 0.0 1.0 0.00 0.13 0.00 85 1021.7
20210921024707 57 180 0.0 5.0 0.00 0.13 0.00 86 1021.6
20210921023151 57 156 0.0 2.0 0.00 0.13 0.00 87 1021.4
20210921021632 56 212 0.0 1.0 0.00 0.13 0.00 88 1021.2
20210921020145 57 211 0.0 2.0 0.00 0.13 0.00 88 1021.1
20210921014539 57 173 0.0 3.0 0.00 0.13 0.00 87 1020.9
20210921013037 58 193 0.0 4.0 0.00 0.13 0.00 86 1020.6
20210921011531 59 209 0.0 1.0 0.00 0.13 0.00 85 1020.5
20210921010043 59 238 0.0 3.0 0.00 0.13 0.00 85 1020.4
20210921004609 59 205 0.0 0.0 0.00 0.13 0.00 85 1020.3
20210921003041 59 192 0.0 0.0 0.00 0.13 0.00 86 1020.1
20210921001543 59 231 0.0 0.0 0.00 0.13 0.00 85 1020.0
20210921000031 60 186 0.0 0.0 0.00 0.13 0.00 84 1020.0
20210920234549 60 173 0.0 3.0 0.00 0.13 0.00 84 1019.9
20210920233030 60 186 0.0 4.0 0.00 0.13 0.00 84 1019.8
20210920231514 60 232 0.0 2.0 0.00 0.13 0.00 84 1019.6
20210920230018 60 163 0.0 2.0 0.00 0.13 0.00 84 1019.4
20210920224556 60 186 0.0 3.0 0.00 0.13 0.00 85 1019.3
20210920223031 60 166 0.0 2.0 0.00 0.13 0.00 85 1019.6
20210920221507 60 319 0.0 2.0 0.00 0.13 0.00 86 1019.7
20210920220003 60 355 0.0 1.0 0.00 0.13 0.00 86 1019.7
20210920214646 60 329 0.0 5.0 0.00 0.13 0.13 85 1019.4
20210920213222 60 188 0.0 3.0 0.00 0.13 0.13 85 1019.3
20210920211858 60 182 0.0 3.0 0.00 0.13 0.13 85 1019.1
20210920210204 60 173 0.0 3.0 0.00 0.13 0.13 85 1019.1
20210920204722 60 214 0.0 4.0 0.00 0.13 0.13 84 1019.1
20210920203149 60 188 0.0 3.0 0.00 0.13 0.13 85 1019.0
20210920201654 61 168 0.0 7.0 0.00 0.13 0.13 86 1018.8
20210920200150 61 199 0.0 5.0 0.00 0.13 0.13 87 1018.7
20210920194625 61 165 0.0 3.0 0.00 0.13 0.13 88 1018.6
20210920193116 61 190 0.0 1.0 0.00 0.13 0.13 88 1018.3
20210920191613 61 182 0.0 5.0 0.00 0.13 0.13 88 1018.0
20210920190140 61 221 0.0 3.0 0.00 0.13 0.13 89 1017.5
20210920184704 61 180 0.0 2.0 0.00 0.13 0.13 90 1017.4
20210920183045 61 194 0.0 1.0 0.00 0.13 0.13 91 1017.1
20210920181603 61 205 0.0 4.0 0.00 0.13 0.13 91 1016.8
20210920180105 61 204 0.0 0.0 0.00 0.13 0.13 92 1016.5
20210920174545 61 200 0.0 4.0 0.00 0.13 0.13 92 1016.3
20210920173032 60 219 0.0 2.0 0.00 0.13 0.13 93 1016.1
20210920171556 60 187 0.0 0.0 0.00 0.13 0.13 94 1015.8
20210920170102 60 187 0.0 2.0 0.00 0.13 0.13 94 1015.5
20210920164535 60 228 0.0 2.0 0.00 0.13 0.13 94 1015.2
20210920163038 61 215 0.0 3.0 0.00 0.13 0.13 95 1015.0
20210920161526 61 269 0.0 0.0 0.01 0.13 0.13 95 1014.8
20210920160019 61 189 0.0 4.0 0.01 0.13 0.13 95 1014.2
20210920154514 61 185 0.0 2.0 0.01 0.13 0.13 95 1014.1
20210920153013 61 196 0.0 0.0 0.01 0.13 0.13 95 1013.9
20210920151540 61 184 0.0 2.0 0.00 0.12 0.12 95 1013.3
20210920150013 61 196 0.0 2.0 0.00 0.12 0.12 95 1013.0
20210920144521 61 318 0.0 2.0 0.00 0.12 0.12 95 1013.0
20210920143009 61 189 0.0 1.0 0.00 0.12 0.12 95 1012.7
20210920141512 62 182 0.0 3.0 0.00 0.12 0.12 95 1012.6
20210920140011 62 170 0.0 5.0 0.03 0.12 0.12 94 1012.0
20210920134509 62 198 0.0 8.0 0.06 0.12 0.12 94 1011.7
20210920133015 62 176 0.0 1.0 0.06 0.12 0.12 94 1011.5
20210920131507 62 188 0.0 8.0 0.06 0.12 0.12 93 1011.3
20210920130006 62 169 0.0 3.0 0.02 0.09 0.09 92 1011.6
20210920124533 63 266 0.0 8.0 0.00 0.06 0.06 90 1011.3
20210920123006 64 176 0.0 5.0 0.00 0.06 0.06 89 1010.2
20210920121504 65 139 1.0 5.0 0.00 0.06 0.06 87 1010.0
20210920120003 66 80 0.0 2.0 0.00 0.06 0.06 86 1010.5
20210920114503 67 134 0.0 3.0 0.00 0.06 0.06 85 1010.0
20210920113007 68 218 0.0 5.0 0.00 0.06 0.06 84 1010.0
20210920111505 69 127 0.0 4.0 0.00 0.06 0.06 82 1010.0
20210920110201 70 110 1.0 6.0 0.00 0.06 0.06 81 1009.7
20210920104847 71 139 1.0 6.0 0.00 0.06 0.06 80 1009.8
20210920103214 71 84 0.0 7.0 0.01 0.06 0.06 80 1009.9
20210920101706 71 188 0.0 4.0 0.01 0.06 0.06 82 1009.9
20210920100140 71 78 0.0 2.0 0.01 0.06 0.06 83 1009.9
20210920094634 71 194 0.0 3.0 0.01 0.06 0.06 83 1010.2
20210920093224 72 161 0.0 4.0 0.00 0.06 0.06 83 1010.1
20210920091621 72 183 0.0 2.0 0.00 0.06 0.06 84 1010.2
20210920090105 69 221 0.0 5.0 0.00 0.06 0.06 85 1009.9
20210920084628 69 29 0.0 4.0 0.00 0.06 0.06 89 1009.9
20210920083132 67 43 0.0 0.0 0.01 0.06 0.06 96 1009.7
20210920081541 64 44 1.0 4.0 0.03 0.06 0.06 95 1009.7
20210920080045 64 161 0.0 0.0 0.03 0.06 0.06 96 1010.3